Regional Weather Roundup
Issued by NWS Green Bay, WI

Home | Current Version | Previous Version | Graphics & Text | Print | Product List | Glossary Off
Versions: 1 2 3 4 5 6 7 8 9 10 11 12 13 14 15 16 17 18 19 20 21 22 23 24 25 26 27 28 29 30 31 32 33 34 35 36 37 38 39 40 41 42 43 44 45 46 47 48 49 50

091
ASUS43 KGRB 040400
RWRGRB

NORTH-CENTRAL AND NORTHEAST WISCONSIN REGIONAL WEATHER ROUNDUP
NATIONAL WEATHER SERVICE GREEN BAY WI
1100 PM CDT TUE MAY 03 2016

WIZ005-009-010>012-018-019-040500-
NORTH CENTRAL WISCONSIN

CITY           SKY/WX    TMP DP  RH WIND       PRES   REMARKS
IRONWOOD         N/A     43  37  81 N9G20     29.79R
MANITOWISH WTR NOT AVBL
ARBOR VITAE    NOT AVBL
EAGLE RIVER    NOT AVBL
LAND O LAKES   NOT AVBL
RHINELANDER    MOCLDY    41  40  96 CALM      29.74R
PHILLIPS       NOT AVBL
ANTIGO         NOT AVBL
TOMAHAWK       NOT AVBL
MERRILL        NOT AVBL
$$

WIZ013-073-040500-
NORTHEAST WISCONSIN

CITY           SKY/WX    TMP DP  RH WIND       PRES   REMARKS
IRON MOUNTAIN  CLOUDY    45  41  86 N9        29.71R
MARINETTE      PTCLDY    46  43  87 N6        29.71R
$$

WIZ017-030-035>037-045-040500-
CENTRAL WISCONSIN

CITY           SKY/WX    TMP DP  RH WIND       PRES   REMARKS
MEDFORD        NOT AVBL
WAUSAU         CLEAR     46  44  93 N3        29.70S
MOSINEE        NOT AVBL
MARSHFIELD     CLEAR     47  44  90 N5        29.70R
WISC RAPIDS    FOG       44  42  93 E3        29.71S VSB 1/4
STEVENS POINT  NOT AVBL
WAUPACA        NOT AVBL
SHAWANO        NOT AVBL
CLINTONVILLE   NOT AVBL
WAUTOMA        PTCLDY    46  46 100 CALM      29.69S
$$

WIZ038-039-048-051-040500-
FOX VALLEY

CITY           SKY/WX    TMP DP  RH WIND       PRES   REMARKS
NWS GREEN BAY  LGT RAIN  48  46  93 CALM      29.68S
APPLETON       LGT RAIN  48  46  93 VRB6      29.66F
OSHKOSH        CLOUDY    48  46  93 W3        29.68F
FOND DU LAC    CLOUDY    50  47  89 E5        29.66F
$$

WIZ022-050-052-040500-
EAST CENTRAL WISCONSIN

CITY           SKY/WX    TMP DP  RH WIND       PRES   REMARKS
EPHRAIM        NOT AVBL
STURGEON BAY   CLOUDY    50  43  76 NW8       29.70S
MANITOWOC      NOT AVBL
SHEBOYGAN      RAIN      48  46  93 N6        29.69R FOG
$$

LMZ563-521-522-541>543-040500-
LAKESHORE

STATION/POSITION TIME  TEMP    WIND        PRES    VSBY  WAVE
                       AIR SEA DIR/SP/G                  HT/PER
                 (UTC) (F)     (DEG/KT/KT) (MB)    (MI)  (FT/S)
SHEBOYGAN LKSHOR 0300   49      50/ 12/ 13 1005.0F
KEWAUNEE LKSHORE 0300   49     250/  2/  4 1005.1R
ALGOMA MARINA    0315             CALM       N/A
NORTHPORT PIER   0340   44     310/  9/ 11 1005.4R
N MID LAKE BUOY  0250   42 39  160/  6/  8 1004.6F         2/ 5
CHAMBERS ISLAND  0300   47     320/  6/  8 1005.8R
MENOMINEE LKSHOR 0300   49     320/  7/  9 1004.4R
$$




USA.gov is the U.S. government's official web portal to all federal, state and local government web resources and services.